Ashtabula, OH

8:59 PM EDT on August 22, 2017 (GMT -0400)
Ashtabula County

Weather History for KHZY - February, 2013

Change the Weather History Date:

Monday, February 25, 2013

  Actual Average (KGKJ) Record (KGKJ)
Temperature  
Mean Temperature 28 °F -  
Max Temperature 37 °F 38 °F 67 °F (1961)
Min Temperature 19 °F 20 °F -4 °F (1963)
Degree Days  
Heating Degree Days 37    
Moisture  
Dew Point 19 °F    
Average Humidity 77    
Maximum Humidity 100    
Minimum Humidity 47    
Precipitation  
Precipitation 0.00 in - - ()
Sea Level Pressure  
Sea Level Pressure 30.19 in    
Wind  
Wind Speed 1 mph (East)    
Max Wind Speed 7 mph    
Max Gust Speed -    
Visibility 6 miles    
Events Fog    
Averages and records for this station are not official NWS values.
T = Trace of Precipitation, MM = Missing Value Source: NWS Daily Summary

Daily Weather History Graph

Daily Weather History Graph

Search for Another Location

Airport or City:

Trip Planner

Search our weather history database for the weather conditions in past years. The results will help you decide how hot, cold, wet, or windy it might be!

Date:

Astronomy

Feb. 25, 2013 Rise Set
Actual Time 7:03 AM EST 6:08 PM EST
Civil Twilight 6:35 AM EST 6:36 PM EST
Nautical Twilight 6:03 AM EST 7:09 PM EST
Astronomical Twilight 5:31 AM EST 7:41 PM EST
Moon 6:21 PM EST (2/25) 6:32 AM EST (2/25)
Length of Visible Light 12h 01m
Length of Day
11h 05m
Full, 100% of the Moon is Illuminated
Feb 25
Full
Feb 25
Full
Mar 4
Last Quarter
Mar 11
New
Mar 19
First Quarter

Hourly Weather History & Observations

Time (EST) Temp. Windchill Dew Point Humidity Pressure Visibility Wind Dir Wind Speed Gust Speed Precip Events Conditions
12:02 AM 24.8 °F - 19.4 °F 80% 30.13 in 6.0 mi Calm Calm - N/A   Haze
12:53 AM 21.9 °F - 18.0 °F 85% 30.17 in 5.0 mi Calm Calm - N/A   Clear
1:25 AM 21.2 °F - 17.6 °F 86% 30.14 in 6.0 mi Calm Calm - N/A   Mostly Cloudy
1:46 AM 21.2 °F - 17.6 °F 86% 30.15 in 6.0 mi Calm Calm - N/A   Haze
1:53 AM 21.9 °F - 17.1 °F 82% 30.19 in 6.0 mi Calm Calm - N/A   Haze
2:00 AM 21.2 °F - 17.6 °F 86% 30.15 in 6.0 mi Calm Calm - N/A   Partly Cloudy
2:44 AM 19.4 °F - 15.8 °F 86% 30.15 in 1.8 mi Calm Calm - N/A   Haze
2:53 AM 19.0 °F - 15.1 °F 85% 30.19 in 3.0 mi Calm Calm - N/A   Clear
3:02 AM 19.4 °F - 15.8 °F 86% 30.16 in 6.0 mi Calm Calm - N/A   Scattered Clouds
3:11 AM 19.4 °F - 15.8 °F 86% 30.15 in 6.0 mi Calm Calm - N/A   Mostly Cloudy
3:53 AM 21.0 °F - 18.0 °F 88% 30.19 in 1.8 mi Calm Calm - N/A   Overcast
3:57 AM 21.2 °F - 19.4 °F 93% 30.15 in 0.8 mi Calm Calm - N/A   Mist
4:53 AM 24.1 °F - 21.0 °F 88% 30.20 in 0.2 mi Calm Calm - N/A Fog Light Freezing Fog
5:53 AM 21.9 °F - 19.9 °F 92% 30.20 in 0.5 mi Calm Calm - N/A Fog Light Freezing Fog
6:53 AM 21.9 °F 15.7 °F 19.0 °F 89% 30.24 in 0.5 mi South 4.6 mph - N/A Fog Light Freezing Fog
7:53 AM 21.9 °F 17.2 °F 19.0 °F 89% 30.24 in 0.5 mi SSE 3.5 mph - N/A Fog Light Freezing Fog
8:25 AM 23.0 °F 17.0 °F 19.4 °F 86% 30.22 in 1.2 mi South 4.6 mph - N/A   Overcast
8:39 AM 23.0 °F - 21.2 °F 93% 30.22 in 1.0 mi Calm Calm - N/A   Overcast
8:45 AM 24.8 °F - 21.2 °F 86% 30.22 in 2.0 mi Calm Calm - N/A   Overcast
8:53 AM 24.1 °F 19.7 °F 21.9 °F 91% 30.26 in 3.0 mi SSE 3.5 mph - N/A   Overcast
9:25 AM 24.8 °F - 24.8 °F 100% 30.22 in 3.0 mi Calm Calm - N/A   Scattered Clouds
9:53 AM 26.1 °F - 24.1 °F 92% 30.26 in 4.0 mi Calm Calm - N/A   Clear
10:53 AM 30.0 °F - 25.0 °F 82% 30.26 in 9.0 mi Calm Calm - N/A   Clear
11:53 AM 30.9 °F 27.5 °F 23.0 °F 72% 30.25 in 10.0 mi Variable 3.5 mph - N/A   Clear
12:53 PM 35.1 °F 31.0 °F 19.9 °F 54% 30.25 in 10.0 mi East 4.6 mph - N/A   Clear
1:53 PM 37.0 °F - 19.9 °F 50% 30.22 in 10.0 mi Calm Calm - N/A   Scattered Clouds
2:53 PM 37.9 °F 35.5 °F 19.0 °F 47% 30.19 in 10.0 mi Variable 3.5 mph - N/A   Clear
3:53 PM 37.9 °F 32.7 °F 21.0 °F 51% 30.19 in 10.0 mi NE 6.9 mph - N/A   Clear
4:53 PM 36.0 °F 30.3 °F 19.9 °F 52% 30.19 in 10.0 mi NNE 6.9 mph - N/A   Clear
5:53 PM 34.0 °F 29.8 °F 19.9 °F 56% 30.19 in 10.0 mi NNE 4.6 mph - N/A   Clear
6:53 PM 30.9 °F 26.2 °F 19.0 °F 61% 30.19 in 10.0 mi NE 4.6 mph - N/A   Clear
7:53 PM 30.0 °F 25.2 °F 18.0 °F 61% 30.19 in 10.0 mi ENE 4.6 mph - N/A   Clear
8:53 PM 28.9 °F 25.2 °F 18.0 °F 64% 30.20 in 10.0 mi NE 3.5 mph - N/A   Clear
9:53 PM 28.9 °F 23.9 °F 17.1 °F 61% 30.17 in 10.0 mi ENE 4.6 mph - N/A   Clear
10:53 PM 28.0 °F 22.8 °F 18.0 °F 66% 30.12 in 10.0 mi ENE 4.6 mph - N/A   Clear
11:53 PM 28.0 °F 21.7 °F 18.0 °F 66% 30.14 in 10.0 mi East 5.8 mph - N/A   Clear